Weather History for Jacksonville Craig, FL

Change the Weather History Date:

Sunday, February 23, 2014

  Actual Average Record
Temperature  
Mean Temperature 62 °F -  
Max Temperature 69 °F 66 °F 84 °F (2012)
Min Temperature 54 °F 48 °F 33 °F (1999)
Degree Days  
Heating Degree Days 4    
Growing Degree Days 12 (Base 50)    
Moisture  
Dew Point 56 °F    
Average Humidity 84    
Maximum Humidity 90    
Minimum Humidity 75    
Precipitation  
Precipitation 0.61 in - - ()
Sea Level Pressure  
Sea Level Pressure 30.07 in    
Wind  
Wind Speed 1 mph (SSW)    
Max Wind Speed 9 mph    
Max Gust Speed -    
Visibility 9 miles    
Events Rain , Thunderstorm    
Averages and records for this station are not official NWS values.
T = Trace of Precipitation, MM = Missing Value Source: NWS Daily Summary

Daily Weather History Graph

Daily Weather History Graph

Search for Another Location

Airport:

Trip Planner

Search our weather history database for the weather conditions in past years. The results will help you decide how hot, cold, wet, or windy it might be!

Date:

Astronomy

Feb. 23, 2014 Rise Set
Actual Time 6:58 AM EST 6:20 PM EST
Civil Twilight 6:34 AM EST 6:44 PM EST
Nautical Twilight 6:06 AM EST 7:12 PM EST
Astronomical Twilight 5:38 AM EST 7:40 PM EST
Moon 1:43 AM EST (2/23) 12:34 PM EST (2/23)
Length of Visible Light 12h 10m
Length of Day
11h 22m
Last Quarter, 39% of the Moon is Illuminated
Feb 23
Last Quarter
Mar 1
New
Mar 8
First Quarter
Mar 16
Full
Mar 23
Last Quarter

Hourly Weather History & Observations

Time (EST) Temp. Dew Point Humidity Pressure Visibility Wind Dir Wind Speed Gust Speed Precip Events Conditions
12:53 AM 54.0 °F 48.0 °F 80% 30.08 in 10.0 mi Calm Calm - N/A   Clear
1:53 AM 54.0 °F 48.9 °F 83% 30.08 in 10.0 mi Calm Calm - N/A   Partly Cloudy
2:53 AM 55.0 °F 50.0 °F 83% 30.06 in 9.0 mi Calm Calm - N/A   Clear
3:53 AM 54.0 °F 48.9 °F 83% 30.06 in 10.0 mi Calm Calm - N/A   Mostly Cloudy
4:17 AM 55.9 °F 51.1 °F 84% 30.06 in 10.0 mi Calm Calm - N/A   Overcast
4:49 AM 55.4 °F 51.8 °F 88% 30.06 in 10.0 mi Calm Calm - N/A   Scattered Clouds
4:53 AM 55.9 °F 51.1 °F 84% 30.06 in 10.0 mi Calm Calm - N/A   Scattered Clouds
5:23 AM 55.9 °F 51.1 °F 84% 30.07 in 10.0 mi Calm Calm - N/A   Mostly Cloudy
5:53 AM 57.0 °F 53.1 °F 87% 30.07 in 10.0 mi Calm Calm - N/A   Mostly Cloudy
6:40 AM 57.0 °F 52.0 °F 83% 30.07 in 10.0 mi Calm Calm - N/A   Scattered Clouds
6:53 AM 55.9 °F 52.0 °F 87% 30.07 in 10.0 mi Calm Calm - N/A   Partly Cloudy
7:07 AM 55.9 °F 52.0 °F 87% 30.08 in 10.0 mi Calm Calm - N/A   Mostly Cloudy
7:32 AM 57.9 °F 54.0 °F 87% 30.09 in 10.0 mi Calm Calm - N/A   Overcast
7:53 AM 59.0 °F 55.0 °F 87% 30.09 in 10.0 mi Calm Calm - N/A   Overcast
8:53 AM 64.0 °F 57.0 °F 78% 30.09 in 10.0 mi Calm Calm - N/A   Overcast
9:53 AM 69.1 °F 61.0 °F 75% 30.10 in 10.0 mi SSW 5.8 mph - N/A   Overcast
10:53 AM 69.1 °F 62.1 °F 78% 30.11 in 10.0 mi Calm Calm - N/A   Overcast
11:53 AM 68.0 °F 62.1 °F 81% 30.10 in 9.0 mi NNE 4.6 mph - 0.00 in Rain Light Rain
12:13 PM 66.9 °F 62.1 °F 84% 30.09 in 7.0 mi ENE 4.6 mph - 0.00 in Rain Light Rain
12:21 PM 66.9 °F 62.1 °F 84% 30.09 in 5.0 mi NE 5.8 mph - 0.01 in Rain , Thunderstorm Light Thunderstorms and Rain
12:53 PM 64.9 °F 61.0 °F 87% 30.09 in 3.0 mi NNW 5.8 mph - 0.06 in Rain , Thunderstorm Light Thunderstorms and Rain
1:53 PM 64.0 °F 59.0 °F 84% 30.06 in 6.0 mi NNW 8.1 mph - 0.17 in Rain , Thunderstorm Light Thunderstorms and Rain
2:53 PM 64.0 °F 59.0 °F 84% 30.05 in 10.0 mi North 3.5 mph - 0.02 in Rain Light Rain
3:53 PM 64.0 °F 57.0 °F 78% 30.05 in 5.0 mi Calm Calm - 0.02 in Rain Light Rain
4:53 PM 63.0 °F 57.0 °F 81% 30.05 in 6.0 mi Calm Calm - 0.04 in Rain Light Rain
5:53 PM 62.1 °F 59.0 °F 90% 30.06 in 7.0 mi SSW 3.5 mph - 0.03 in Rain Light Rain
6:53 PM 62.1 °F 57.9 °F 86% 30.04 in 8.0 mi SSE 3.5 mph - 0.02 in Rain Light Rain
7:53 PM 62.1 °F 57.9 °F 86% 30.05 in 10.0 mi SSW 6.9 mph - 0.01 in   Mostly Cloudy
8:53 PM 62.1 °F 57.9 °F 86% 30.03 in 9.0 mi South 6.9 mph - 0.04 in Rain Light Rain
9:53 PM 63.0 °F 59.0 °F 87% 30.02 in 4.0 mi SSW 6.9 mph - 0.15 in Rain Rain
10:53 PM 63.0 °F 59.0 °F 87% 30.02 in 10.0 mi SSW 9.2 mph - 0.04 in Rain Light Rain
11:53 PM 64.0 °F 59.0 °F 84% 29.99 in 10.0 mi SSW 5.8 mph - 0.01 in Rain Light Rain